Flag for Canada Weather past 2 weeks in Saanich, British Columbia, Canada

Now
57 °F

Passing clouds.


Feels Like: 57 °F
Forecast: 53 / 66 °F
Wind: 3 mph from West

Location: Victoria Int. Airportb. C.

Current Time: Sep 19, 2014 at 11:22:03 PM

Latest Report: Sep 19, 2014 at 10:00 PM


Visibility: 30 mi

Pressure: 30.13 "Hg

Humidity: 94%

Dew point: 55 °F

Location of SaanichLocation

Historic Weather in Saanich — Graph

°F

Saanich temperature yesterday

Maximum temperature yesterday: 68 °F (at 4:00 PM)
Minimum temperature yesterday: 55 °F (at 12:00 AM)
Average temperature yesterday: 60 °F

Past Weeks' High & Low Weather Summary

 TemperatureHumidityPressure
High81 °F (Sep 6, 3:00 PM)100% (Sep 18, 5:00 AM)30.34 "Hg (Sep 18, 5:00 AM)
Low45 °F (Sep 12, 4:00 AM)19% (Sep 11, 4:00 PM)29.72 "Hg (Sep 18, 4:00 AM)
Average61 °F67%29.97 "Hg
* Reported Sep 4 10:00 PM — Sep 19 10:00 PM, Saanich, Weather by CustomWeather, © 2014

Note: Actual official high and low records may vary slightly from our data, if they occured in-between our weather recording intervals... More about our weather records

Advertising

Saanich weather history for previous 24 hours

 ConditionsComfort  
Time TempWeatherWind HumidityBarometerVisibility
10:00 PM
Sep 19
57 °FPassing clouds.3 mph94%30.13 "Hg30 mi
9:00 PM59 °FPassing clouds.No wind88%30.11 "Hg30 mi
8:00 PM59 °FScattered clouds.2 mph88%30.11 "Hg30 mi
7:00 PM63 °FBroken clouds.8 mph83%30.09 "Hg30 mi
6:00 PM64 °FScattered clouds.8 mph78%30.09 "Hg30 mi
5:00 PM66 °FBroken clouds.7 mph73%30.09 "Hg30 mi
4:00 PM66 °FBroken clouds.10 mph73%30.09 "Hg30 mi
3:00 PM66 °FBroken clouds.10 mph78%30.09 "Hg30 mi
2:00 PM64 °FPartly sunny.14 mph83%30.10 "Hg30 mi
1:00 PM63 °FPartly sunny.8 mph88%30.10 "Hg20 mi
12:00 PM63 °FMostly cloudy.9 mph94%30.09 "Hg15 mi
11:00 AM59 °FPartly sunny.8 mph94%30.08 "Hg20 mi
10:00 AM57 °FMostly cloudy.10 mph94%30.06 "Hg20 mi
9:00 AM57 °FLight rain. Partly sunny.7 mph94%30.03 "Hg15 mi
8:00 AM57 °FLight rain. Partly sunny.8 mph94%30.01 "Hg20 mi
7:00 AM57 °FLight rain. Passing clouds.10 mph88%29.99 "Hg30 mi
6:00 AM57 °FOvercast.8 mph88%29.98 "Hg30 mi
5:00 AM59 °FOvercast.7 mph82%29.97 "Hg30 mi
4:00 AM64 °FOvercast.9 mph68%29.96 "Hg30 mi
3:04 AM63 °FLight rain. Mostly cloudy.7 mph73%29.96 "Hg30 mi
2:00 AM63 °FMostly cloudy.5 mph73%29.96 "Hg30 mi
1:00 AM63 °FMostly cloudy.6 mph77%29.95 "Hg30 mi
12:00 AM61 °FMostly cloudy.7 mph83%29.94 "Hg30 mi
11:00 PM
Sep 18
61 °FOvercast.3 mph88%29.93 "Hg30 mi
Weather by CustomWeather, © 2014

See weather overviewHow to use our weather pages